Time,TemperatureF,DewpointF,PressureIn,WindDirection,WindDirectionDegrees,WindSpeedMPH,WindSpeedGustMPH,Humidity,HourlyPrecipIn,Conditions,Clouds,dailyrainin,SolarRadiationWatts/m^2,SoftwareType,DateUTC
2013-11-13 00:00:00,23.6,15.3,30.54,North,355,1.0,4.0,70,0.00,,,0.00,0,HR-IXPWINDi_r2_v1.2.,2013-11-13 05:00:00,
2013-11-13 00:01:00,23.5,15.2,30.54,North,355,0.0,4.0,70,0.00,,,0.00,0,HR-IXPWINDi_r2_v1.2.,2013-11-13 05:01:00,
2013-11-13 00:06:00,23.5,15.2,30.55,North,355,0.0,4.0,70,0.00,,,0.00,0,HR-IXPWINDi_r2_v1.2.,2013-11-13 05:06:00,
2013-11-13 00:11:00,23.5,15.2,30.55,NE,40,5.0,5.0,70,0.00,,,0.00,0,HR-IXPWINDi_r2_v1.2.,2013-11-13 05:11:00,
2013-11-13 00:16:00,23.6,15.0,30.54,North,355,0.0,5.0,69,0.00,,,0.00,0,HR-IXPWINDi_r2_v1.2.,2013-11-13 05:16:00,
2013-11-13 00:21:00,23.7,15.4,30.55,North,355,0.0,5.0,70,0.00,,,0.00,0,HR-IXPWINDi_r2_v1.2.,2013-11-13 05:21:00,
2013-11-13 00:27:00,23.8,15.1,30.54,NNW,348,0.0,2.0,69,0.00,,,0.00,0,HR-IXPWINDi_r2_v1.2.,2013-11-13 05:27:00,
2013-11-13 00:32:00,23.8,15.1,30.54,NNW,348,0.0,2.0,69,0.00,,,0.00,0,HR-IXPWINDi_r2_v1.2.,2013-11-13 05:32:00,
2013-11-13 00:37:00,23.6,15.3,30.54,SSW,206,4.0,5.0,70,0.00,,,0.00,0,HR-IXPWINDi_r2_v1.2.,2013-11-13 05:37:00,
2013-11-13 00:42:00,23.8,14.8,30.54,NW,315,0.0,5.0,68,0.00,,,0.00,0,HR-IXPWINDi_r2_v1.2.,2013-11-13 05:42:00,
2013-11-13 00:47:00,23.9,14.9,30.54,NNE,23,0.0,5.0,68,0.00,,,0.00,0,HR-IXPWINDi_r2_v1.2.,2013-11-13 05:47:00,
2013-11-13 00:52:00,23.8,14.8,30.54,NNW,331,6.0,7.0,68,0.00,,,0.00,0,HR-IXPWINDi_r2_v1.2.,2013-11-13 05:52:00,
2013-11-13 00:58:00,23.6,15.0,30.54,SW,235,3.0,7.0,69,0.00,,,0.00,0,HR-IXPWINDi_r2_v1.2.,2013-11-13 05:58:00,
2013-11-13 01:03:00,23.5,14.9,30.54,SSW,208,0.0,7.0,69,0.00,,,0.00,0,HR-IXPWINDi_r2_v1.2.,2013-11-13 06:03:00,
2013-11-13 01:08:00,23.5,14.9,30.54,NW,318,0.0,5.0,69,0.00,,,0.00,0,HR-IXPWINDi_r2_v1.2.,2013-11-13 06:08:00,
2013-11-13 01:13:00,23.3,15.0,30.54,NNW,342,3.0,6.0,70,0.00,,,0.00,0,HR-IXPWINDi_r2_v1.2.,2013-11-13 06:13:00,
2013-11-13 01:18:00,23.0,15.0,30.54,North,349,0.0,6.0,71,0.00,,,0.00,0,HR-IXPWINDi_r2_v1.2.,2013-11-13 06:18:00,
2013-11-13 01:24:00,22.8,15.2,30.54,North,349,1.0,5.0,72,0.00,,,0.00,0,HR-IXPWINDi_r2_v1.2.,2013-11-13 06:24:00,
2013-11-13 01:29:00,22.6,15.0,30.54,North,349,0.0,2.0,72,0.00,,,0.00,0,HR-IXPWINDi_r2_v1.2.,2013-11-13 06:29:00,
2013-11-13 01:34:00,22.4,15.1,30.54,North,349,0.0,2.0,73,0.00,,,0.00,0,HR-IXPWINDi_r2_v1.2.,2013-11-13 06:34:00,
2013-11-13 01:39:00,22.2,14.9,30.55,North,349,2.0,3.0,73,0.00,,,0.00,0,HR-IXPWINDi_r2_v1.2.,2013-11-13 06:39:00,
2013-11-13 01:45:00,22.0,15.0,30.55,North,349,0.0,3.0,74,0.00,,,0.00,0,HR-IXPWINDi_r2_v1.2.,2013-11-13 06:45:00,
2013-11-13 01:50:00,22.0,15.0,30.55,North,349,0.0,3.0,74,0.00,,,0.00,0,HR-IXPWINDi_r2_v1.2.,2013-11-13 06:50:00,
2013-11-13 01:55:00,21.9,15.2,30.55,North,349,0.0,1.0,75,0.00,,,0.00,0,HR-IXPWINDi_r2_v1.2.,2013-11-13 06:55:00,
2013-11-13 02:00:00,21.9,15.2,30.55,North,349,0.0,1.0,75,0.00,,,0.00,0,HR-IXPWINDi_r2_v1.2.,2013-11-13 07:00:00,
2013-11-13 02:06:00,21.8,15.4,30.55,North,349,0.0,2.0,76,0.00,,,0.00,0,HR-IXPWINDi_r2_v1.2.,2013-11-13 07:06:00,
2013-11-13 02:11:00,22.0,15.6,30.55,North,349,2.0,2.0,76,0.00,,,0.00,0,HR-IXPWINDi_r2_v1.2.,2013-11-13 07:11:00,
2013-11-13 02:16:00,22.1,16.0,30.55,North,349,0.0,2.0,77,0.00,,,0.00,0,HR-IXPWINDi_r2_v1.2.,2013-11-13 07:16:00,
2013-11-13 02:21:00,22.1,16.0,30.55,North,349,0.0,2.0,77,0.00,,,0.00,0,HR-IXPWINDi_r2_v1.2.,2013-11-13 07:21:00,
2013-11-13 02:26:00,22.1,16.0,30.55,North,349,0.0,2.0,77,0.00,,,0.00,0,HR-IXPWINDi_r2_v1.2.,2013-11-13 07:26:00,
2013-11-13 02:31:00,22.2,16.1,30.55,North,349,0.0,2.0,77,0.00,,,0.00,0,HR-IXPWINDi_r2_v1.2.,2013-11-13 07:31:00,
2013-11-13 02:36:00,22.4,16.3,30.55,North,349,0.0,0.0,77,0.00,,,0.00,0,HR-IXPWINDi_r2_v1.2.,2013-11-13 07:36:00,
2013-11-13 02:42:00,22.4,16.3,30.55,North,349,0.0,0.0,77,0.00,,,0.00,0,HR-IXPWINDi_r2_v1.2.,2013-11-13 07:42:00,
2013-11-13 02:47:00,22.4,16.3,30.56,North,349,0.0,0.0,77,0.00,,,0.00,0,HR-IXPWINDi_r2_v1.2.,2013-11-13 07:47:00,
2013-11-13 02:52:00,22.3,16.2,30.55,North,349,2.0,3.0,77,0.00,,,0.00,0,HR-IXPWINDi_r2_v1.2.,2013-11-13 07:52:00,
2013-11-13 02:57:00,22.3,16.2,30.56,North,349,2.0,3.0,77,0.00,,,0.00,0,HR-IXPWINDi_r2_v1.2.,2013-11-13 07:57:00,
2013-11-13 03:03:00,22.1,16.0,30.56,North,349,0.0,3.0,77,0.00,,,0.00,0,HR-IXPWINDi_r2_v1.2.,2013-11-13 08:03:00,
2013-11-13 03:08:00,22.0,15.9,30.56,North,349,0.0,2.0,77,0.00,,,0.00,0,HR-IXPWINDi_r2_v1.2.,2013-11-13 08:08:00,
2013-11-13 03:13:00,21.8,15.7,30.56,NNW,346,2.0,4.0,77,0.00,,,0.00,0,HR-IXPWINDi_r2_v1.2.,2013-11-13 08:13:00,
2013-11-13 03:18:00,21.5,15.4,30.56,NNW,346,0.0,4.0,77,0.00,,,0.00,0,HR-IXPWINDi_r2_v1.2.,2013-11-13 08:18:00,
2013-11-13 03:23:00,21.2,15.4,30.56,NNW,346,1.0,3.0,78,0.00,,,0.00,0,HR-IXPWINDi_r2_v1.2.,2013-11-13 08:23:00,
2013-11-13 03:29:00,21.0,15.3,30.57,NNW,346,0.0,3.0,78,0.00,,,0.00,0,HR-IXPWINDi_r2_v1.2.,2013-11-13 08:29:00,
2013-11-13 03:34:00,20.9,15.2,30.57,NNW,346,0.0,2.0,78,0.00,,,0.00,0,HR-IXPWINDi_r2_v1.2.,2013-11-13 08:34:00,
2013-11-13 03:39:00,20.7,15.0,30.56,NNW,346,1.0,2.0,78,0.00,,,0.00,0,HR-IXPWINDi_r2_v1.2.,2013-11-13 08:39:00,
2013-11-13 03:44:00,20.4,15.0,30.56,NNW,346,2.0,2.0,79,0.00,,,0.00,0,HR-IXPWINDi_r2_v1.2.,2013-11-13 08:44:00,
2013-11-13 03:50:00,20.1,14.7,30.56,NNW,346,3.0,4.0,79,0.00,,,0.00,0,HR-IXPWINDi_r2_v1.2.,2013-11-13 08:50:00,
2013-11-13 03:55:00,20.0,14.9,30.56,NNW,346,0.0,4.0,80,0.00,,,0.00,0,HR-IXPWINDi_r2_v1.2.,2013-11-13 08:55:00,
2013-11-13 04:00:00,19.9,14.8,30.56,NNW,346,0.0,4.0,80,0.00,,,0.00,0,HR-IXPWINDi_r2_v1.2.,2013-11-13 09:00:00,
2013-11-13 04:06:00,19.9,14.8,30.56,NNW,346,2.0,3.0,80,0.00,,,0.00,0,HR-IXPWINDi_r2_v1.2.,2013-11-13 09:06:00,
2013-11-13 04:11:00,19.7,14.6,30.56,NNW,346,2.0,3.0,80,0.00,,,0.00,0,HR-IXPWINDi_r2_v1.2.,2013-11-13 09:11:00,
2013-11-13 04:16:00,19.6,14.8,30.56,NNW,346,0.0,3.0,81,0.00,,,0.00,0,HR-IXPWINDi_r2_v1.2.,2013-11-13 09:16:00,
2013-11-13 04:21:00,19.5,14.7,30.56,NNW,346,0.0,3.0,81,0.00,,,0.00,0,HR-IXPWINDi_r2_v1.2.,2013-11-13 09:21:00,
2013-11-13 04:26:00,19.5,14.7,30.56,NNW,346,0.0,2.0,81,0.00,,,0.00,0,HR-IXPWINDi_r2_v1.2.,2013-11-13 09:26:00,
2013-11-13 04:31:00,19.4,14.6,30.56,NNW,346,1.0,3.0,81,0.00,,,0.00,0,HR-IXPWINDi_r2_v1.2.,2013-11-13 09:31:00,
2013-11-13 04:37:00,19.3,14.7,30.56,NNW,346,1.0,3.0,82,0.00,,,0.00,0,HR-IXPWINDi_r2_v1.2.,2013-11-13 09:37:00,
2013-11-13 04:42:00,19.2,14.4,30.56,NNW,346,0.0,2.0,81,0.00,,,0.00,0,HR-IXPWINDi_r2_v1.2.,2013-11-13 09:42:00,
2013-11-13 04:47:00,19.3,14.7,30.56,NNW,346,0.0,2.0,82,0.00,,,0.00,0,HR-IXPWINDi_r2_v1.2.,2013-11-13 09:47:00,
2013-11-13 04:52:00,19.2,14.6,30.56,NNW,346,0.0,1.0,82,0.00,,,0.00,0,HR-IXPWINDi_r2_v1.2.,2013-11-13 09:52:00,
2013-11-13 04:57:00,19.1,14.5,30.56,NNW,346,0.0,1.0,82,0.00,,,0.00,0,HR-IXPWINDi_r2_v1.2.,2013-11-13 09:57:00,
2013-11-13 05:02:00,18.9,14.4,30.56,NNW,346,2.0,3.0,82,0.00,,,0.00,0,HR-IXPWINDi_r2_v1.2.,2013-11-13 10:02:00,
2013-11-13 05:07:00,18.7,14.2,30.56,NNW,346,1.0,3.0,82,0.00,,,0.00,0,HR-IXPWINDi_r2_v1.2.,2013-11-13 10:07:00,
2013-11-13 05:13:00,18.7,14.4,30.56,NNW,346,3.0,3.0,83,0.00,,,0.00,0,HR-IXPWINDi_r2_v1.2.,2013-11-13 10:13:00,
2013-11-13 05:18:00,18.6,14.1,30.56,NNW,346,0.0,3.0,82,0.00,,,0.00,0,HR-IXPWINDi_r2_v1.2.,2013-11-13 10:18:00,
2013-11-13 05:23:00,18.5,14.2,30.56,NNW,346,0.0,3.0,83,0.00,,,0.00,0,HR-IXPWINDi_r2_v1.2.,2013-11-13 10:23:00,
2013-11-13 05:28:00,18.5,14.2,30.56,NNW,346,1.0,3.0,83,0.00,,,0.00,0,HR-IXPWINDi_r2_v1.2.,2013-11-13 10:28:00,
2013-11-13 05:33:00,18.5,14.2,30.56,NNW,346,0.0,2.0,83,0.00,,,0.00,0,HR-IXPWINDi_r2_v1.2.,2013-11-13 10:33:00,
2013-11-13 05:38:00,18.3,14.0,30.56,NNW,346,1.0,3.0,83,0.00,,,0.00,0,HR-IXPWINDi_r2_v1.2.,2013-11-13 10:38:00,
2013-11-13 05:43:00,18.2,13.9,30.57,NNW,346,0.0,3.0,83,0.00,,,0.00,0,HR-IXPWINDi_r2_v1.2.,2013-11-13 10:43:00,
2013-11-13 05:48:00,18.2,14.2,30.57,NNW,346,0.0,3.0,84,0.00,,,0.00,0,HR-IXPWINDi_r2_v1.2.,2013-11-13 10:48:00,
2013-11-13 05:54:00,18.3,14.3,30.57,NNW,346,0.0,1.0,84,0.00,,,0.00,0,HR-IXPWINDi_r2_v1.2.,2013-11-13 10:54:00,
2013-11-13 05:59:00,18.5,14.5,30.57,NNW,346,0.0,0.0,84,0.00,,,0.00,0,HR-IXPWINDi_r2_v1.2.,2013-11-13 10:59:00,
2013-11-13 06:04:00,18.6,14.6,30.57,NNW,346,0.0,0.0,84,0.00,,,0.00,0,HR-IXPWINDi_r2_v1.2.,2013-11-13 11:04:00,
2013-11-13 06:09:00,18.7,16.8,30.58,NNW,346,0.0,2.0,92,0.00,,,0.00,0,HR-IXPWINDi_r2_v1.2.,2013-11-13 11:09:00,
2013-11-13 06:14:00,18.7,14.7,30.58,NNW,346,0.0,3.0,84,0.00,,,0.00,0,HR-IXPWINDi_r2_v1.2.,2013-11-13 11:14:00,
2013-11-13 06:19:00,18.8,14.8,30.59,NNW,346,0.0,3.0,84,0.00,,,0.00,0,HR-IXPWINDi_r2_v1.2.,2013-11-13 11:19:00,
2013-11-13 06:24:00,18.9,14.9,30.59,NNW,346,0.0,2.0,84,0.00,,,0.00,0,HR-IXPWINDi_r2_v1.2.,2013-11-13 11:24:00,
2013-11-13 06:30:00,19.3,15.3,30.59,WSW,254,0.0,2.0,84,0.00,,,0.00,0,HR-IXPWINDi_r2_v1.2.,2013-11-13 11:30:00,
2013-11-13 06:35:00,19.3,15.3,30.60,NW,323,0.0,3.0,84,0.00,,,0.00,0,HR-IXPWINDi_r2_v1.2.,2013-11-13 11:35:00,
2013-11-13 06:40:00,19.2,15.2,30.60,NW,323,3.0,3.0,84,0.00,,,0.00,0,HR-IXPWINDi_r2_v1.2.,2013-11-13 11:40:00,
2013-11-13 06:45:00,19.1,15.1,30.60,NW,323,0.0,3.0,84,0.00,,,0.00,0,HR-IXPWINDi_r2_v1.2.,2013-11-13 11:45:00,
2013-11-13 06:50:00,19.2,15.2,30.60,NW,323,0.0,3.0,84,0.00,,,0.00,0,HR-IXPWINDi_r2_v1.2.,2013-11-13 11:50:00,
2013-11-13 06:56:00,19.3,15.3,30.60,NW,323,0.0,1.0,84,0.00,,,0.00,0,HR-IXPWINDi_r2_v1.2.,2013-11-13 11:56:00,
2013-11-13 07:01:00,19.2,15.2,30.60,NW,323,1.0,1.0,84,0.00,,,0.00,0,HR-IXPWINDi_r2_v1.2.,2013-11-13 12:01:00,
2013-11-13 07:06:00,19.1,15.1,30.61,NW,323,0.0,1.0,84,0.00,,,0.00,5,HR-IXPWINDi_r2_v1.2.,2013-11-13 12:06:00,
2013-11-13 07:12:00,19.0,15.0,30.61,NW,323,0.0,2.0,84,0.00,,,0.00,7,HR-IXPWINDi_r2_v1.2.,2013-11-13 12:12:00,
2013-11-13 07:17:00,19.0,15.0,30.61,NW,323,0.0,2.0,84,0.00,,,0.00,7,HR-IXPWINDi_r2_v1.2.,2013-11-13 12:17:00,
2013-11-13 07:22:00,19.0,15.0,30.61,NW,323,2.0,3.0,84,0.00,,,0.00,11,HR-IXPWINDi_r2_v1.2.,2013-11-13 12:22:00,
2013-11-13 07:27:00,18.9,14.9,30.61,NW,323,1.0,3.0,84,0.00,,,0.00,11,HR-IXPWINDi_r2_v1.2.,2013-11-13 12:27:00,
2013-11-13 07:32:00,19.0,15.0,30.61,NW,323,1.0,3.0,84,0.00,,,0.00,12,HR-IXPWINDi_r2_v1.2.,2013-11-13 12:32:00,
2013-11-13 07:37:00,19.1,15.1,30.61,NW,323,0.0,2.0,84,0.00,,,0.00,14,HR-IXPWINDi_r2_v1.2.,2013-11-13 12:37:00,
2013-11-13 07:43:00,19.1,15.1,30.62,NW,323,0.0,2.0,84,0.00,,,0.00,19,HR-IXPWINDi_r2_v1.2.,2013-11-13 12:43:00,
2013-11-13 07:48:00,19.9,16.1,30.62,WSW,252,1.0,2.0,85,0.00,,,0.00,63,HR-IXPWINDi_r2_v1.2.,2013-11-13 12:48:00,
2013-11-13 07:53:00,21.5,17.2,30.62,WSW,239,3.0,3.0,83,0.00,,,0.00,83,HR-IXPWINDi_r2_v1.2.,2013-11-13 12:53:00,
2013-11-13 07:58:00,22.1,17.2,30.63,SW,224,1.0,4.0,81,0.00,,,0.00,102,HR-IXPWINDi_r2_v1.2.,2013-11-13 12:58:00,
2013-11-13 08:04:00,22.6,17.4,30.63,SW,225,0.0,7.0,80,0.00,,,0.00,118,HR-IXPWINDi_r2_v1.2.,2013-11-13 13:04:00,
2013-11-13 08:09:00,23.2,17.7,30.63,SSW,210,1.0,7.0,79,0.00,,,0.00,134,HR-IXPWINDi_r2_v1.2.,2013-11-13 13:09:00,
2013-11-13 08:14:00,23.6,17.8,30.63,SW,227,0.0,7.0,78,0.00,,,0.00,153,HR-IXPWINDi_r2_v1.2.,2013-11-13 13:14:00,
2013-11-13 08:19:00,23.8,17.7,30.63,SW,214,0.0,7.0,77,0.00,,,0.00,171,HR-IXPWINDi_r2_v1.2.,2013-11-13 13:19:00,
2013-11-13 08:24:00,24.3,17.8,30.64,SW,236,0.0,7.0,76,0.00,,,0.00,188,HR-IXPWINDi_r2_v1.2.,2013-11-13 13:24:00,
2013-11-13 08:30:00,24.8,18.3,30.64,SW,223,2.0,7.0,76,0.00,,,0.00,206,HR-IXPWINDi_r2_v1.2.,2013-11-13 13:30:00,
2013-11-13 08:35:00,25.0,18.2,30.64,SSW,209,7.0,7.0,75,0.00,,,0.00,225,HR-IXPWINDi_r2_v1.2.,2013-11-13 13:35:00,
2013-11-13 08:40:00,25.1,18.0,30.64,WSW,248,1.0,7.0,74,0.00,,,0.00,244,HR-IXPWINDi_r2_v1.2.,2013-11-13 13:40:00,
2013-11-13 08:45:00,25.2,18.1,30.64,SSW,204,2.0,7.0,74,0.00,,,0.00,260,HR-IXPWINDi_r2_v1.2.,2013-11-13 13:45:00,
2013-11-13 08:51:00,25.3,18.2,30.64,SSW,202,4.0,11.0,74,0.00,,,0.00,274,HR-IXPWINDi_r2_v1.2.,2013-11-13 13:51:00,
2013-11-13 08:56:00,25.8,18.4,30.64,SW,218,0.0,11.0,73,0.00,,,0.00,287,HR-IXPWINDi_r2_v1.2.,2013-11-13 13:56:00,
2013-11-13 09:01:00,26.1,18.0,30.64,SSW,207,0.0,10.0,71,0.00,,,0.00,301,HR-IXPWINDi_r2_v1.2.,2013-11-13 14:01:00,
2013-11-13 09:06:00,26.8,18.7,30.64,SW,228,1.0,10.0,71,0.00,,,0.00,313,HR-IXPWINDi_r2_v1.2.,2013-11-13 14:06:00,
2013-11-13 09:11:00,27.6,19.1,30.63,WSW,241,1.0,8.0,70,0.00,,,0.00,327,HR-IXPWINDi_r2_v1.2.,2013-11-13 14:11:00,
2013-11-13 09:16:00,27.5,18.3,30.63,West,266,1.0,7.0,68,0.00,,,0.00,339,HR-IXPWINDi_r2_v1.2.,2013-11-13 14:16:00,
2013-11-13 09:21:00,28.3,19.1,30.63,SSW,211,4.0,7.0,68,0.00,,,0.00,353,HR-IXPWINDi_r2_v1.2.,2013-11-13 14:21:00,
2013-11-13 09:27:00,28.6,18.7,30.63,SW,216,3.0,6.0,66,0.00,,,0.00,364,HR-IXPWINDi_r2_v1.2.,2013-11-13 14:27:00,
2013-11-13 09:32:00,28.5,18.6,30.63,SW,215,4.0,10.0,66,0.00,,,0.00,380,HR-IXPWINDi_r2_v1.2.,2013-11-13 14:32:00,
2013-11-13 09:37:00,29.3,19.0,30.63,SSW,198,2.0,10.0,65,0.00,,,0.00,388,HR-IXPWINDi_r2_v1.2.,2013-11-13 14:37:00,
2013-11-13 09:42:00,29.9,19.2,30.63,South,173,1.0,9.0,64,0.00,,,0.00,401,HR-IXPWINDi_r2_v1.2.,2013-11-13 14:42:00,
2013-11-13 09:47:00,30.4,19.0,30.63,SW,219,4.0,7.0,62,0.00,,,0.00,413,HR-IXPWINDi_r2_v1.2.,2013-11-13 14:47:00,
2013-11-13 09:53:00,30.2,18.0,30.63,NNW,339,2.0,8.0,60,0.00,,,0.00,424,HR-IXPWINDi_r2_v1.2.,2013-11-13 14:53:00,
2013-11-13 09:58:00,30.9,17.9,30.64,NW,310,2.0,8.0,58,0.00,,,0.00,436,HR-IXPWINDi_r2_v1.2.,2013-11-13 14:58:00,
2013-11-13 10:03:00,31.0,18.4,30.64,SSW,212,1.0,7.0,59,0.00,,,0.00,446,HR-IXPWINDi_r2_v1.2.,2013-11-13 15:03:00,
2013-11-13 10:08:00,31.3,17.8,30.64,WNW,287,0.0,7.0,57,0.00,,,0.00,457,HR-IXPWINDi_r2_v1.2.,2013-11-13 15:08:00,
2013-11-13 10:13:00,31.5,17.6,30.64,NW,323,3.0,6.0,56,0.00,,,0.00,468,HR-IXPWINDi_r2_v1.2.,2013-11-13 15:13:00,
2013-11-13 10:19:00,31.7,17.8,30.64,SW,214,3.0,7.0,56,0.00,,,0.00,475,HR-IXPWINDi_r2_v1.2.,2013-11-13 15:19:00,
2013-11-13 10:24:00,32.6,18.7,30.64,West,260,2.0,8.0,56,0.00,,,0.00,483,HR-IXPWINDi_r2_v1.2.,2013-11-13 15:24:00,
2013-11-13 10:29:00,32.6,17.4,30.64,NW,309,1.0,8.0,53,0.00,,,0.00,492,HR-IXPWINDi_r2_v1.2.,2013-11-13 15:29:00,
2013-11-13 10:34:00,32.8,17.1,30.64,NW,318,2.0,8.0,52,0.00,,,0.00,499,HR-IXPWINDi_r2_v1.2.,2013-11-13 15:34:00,
2013-11-13 10:39:00,33.2,18.4,30.64,NW,313,1.0,8.0,54,0.00,,,0.00,508,HR-IXPWINDi_r2_v1.2.,2013-11-13 15:39:00,
2013-11-13 10:45:00,33.7,18.4,30.64,NW,305,2.0,8.0,53,0.00,,,0.00,515,HR-IXPWINDi_r2_v1.2.,2013-11-13 15:45:00,
2013-11-13 10:50:00,33.5,17.3,30.64,WNW,292,2.0,8.0,51,0.00,,,0.00,522,HR-IXPWINDi_r2_v1.2.,2013-11-13 15:50:00,
2013-11-13 10:56:00,33.9,17.2,30.64,NNE,15,3.0,7.0,50,0.00,,,0.00,527,HR-IXPWINDi_r2_v1.2.,2013-11-13 15:56:00,
2013-11-13 11:01:00,34.6,17.9,30.64,WNW,288,0.0,7.0,50,0.00,,,0.00,534,HR-IXPWINDi_r2_v1.2.,2013-11-13 16:01:00,
2013-11-13 11:06:00,33.8,16.7,30.64,NNW,336,6.0,8.0,49,0.00,,,0.00,540,HR-IXPWINDi_r2_v1.2.,2013-11-13 16:06:00,
2013-11-13 11:11:00,34.7,17.0,30.64,North,351,9.0,11.0,48,0.00,,,0.00,545,HR-IXPWINDi_r2_v1.2.,2013-11-13 16:11:00,
2013-11-13 11:16:00,34.4,16.8,30.64,North,355,3.0,11.0,48,0.00,,,0.00,550,HR-IXPWINDi_r2_v1.2.,2013-11-13 16:16:00,
2013-11-13 11:21:00,34.7,16.1,30.64,NNW,333,4.0,11.0,46,0.00,,,0.00,554,HR-IXPWINDi_r2_v1.2.,2013-11-13 16:21:00,
2013-11-13 11:26:00,36.4,17.6,30.63,NW,309,2.0,8.0,46,0.00,,,0.00,557,HR-IXPWINDi_r2_v1.2.,2013-11-13 16:26:00,
2013-11-13 11:32:00,35.8,16.0,30.63,ESE,102,1.0,10.0,44,0.00,,,0.00,561,HR-IXPWINDi_r2_v1.2.,2013-11-13 16:32:00,
2013-11-13 11:37:00,36.4,16.6,30.63,NW,315,2.0,10.0,44,0.00,,,0.00,564,HR-IXPWINDi_r2_v1.2.,2013-11-13 16:37:00,
2013-11-13 11:42:00,37.4,17.5,30.63,NW,309,3.0,6.0,44,0.00,,,0.00,566,HR-IXPWINDi_r2_v1.2.,2013-11-13 16:42:00,
2013-11-13 11:47:00,37.0,16.6,30.62,NW,323,1.0,6.0,43,0.00,,,0.00,568,HR-IXPWINDi_r2_v1.2.,2013-11-13 16:47:00,
2013-11-13 11:52:00,37.3,18.9,30.62,NNW,343,2.0,10.0,47,0.00,,,0.00,570,HR-IXPWINDi_r2_v1.2.,2013-11-13 16:52:00,
2013-11-13 11:58:00,38.0,19.1,30.62,SW,217,3.0,10.0,46,0.00,,,0.00,573,HR-IXPWINDi_r2_v1.2.,2013-11-13 16:58:00,
2013-11-13 12:03:00,37.7,19.8,30.62,SSW,209,3.0,6.0,48,0.00,,,0.00,571,HR-IXPWINDi_r2_v1.2.,2013-11-13 17:03:00,
2013-11-13 12:08:00,37.9,20.4,30.61,SSW,203,6.0,8.0,49,0.00,,,0.00,573,HR-IXPWINDi_r2_v1.2.,2013-11-13 17:08:00,
2013-11-13 12:13:00,38.0,20.1,30.61,West,272,1.0,8.0,48,0.00,,,0.00,573,HR-IXPWINDi_r2_v1.2.,2013-11-13 17:13:00,
2013-11-13 12:18:00,38.1,20.1,30.61,WNW,291,2.0,8.0,48,0.00,,,0.00,571,HR-IXPWINDi_r2_v1.2.,2013-11-13 17:18:00,
2013-11-13 12:24:00,37.9,20.9,30.61,NW,315,3.0,11.0,50,0.00,,,0.00,571,HR-IXPWINDi_r2_v1.2.,2013-11-13 17:24:00,
2013-11-13 12:29:00,38.3,20.3,30.61,West,261,1.0,11.0,48,0.00,,,0.00,568,HR-IXPWINDi_r2_v1.2.,2013-11-13 17:29:00,
2013-11-13 12:34:00,38.0,20.1,30.60,North,5,0.0,9.0,48,0.00,,,0.00,568,HR-IXPWINDi_r2_v1.2.,2013-11-13 17:34:00,
2013-11-13 12:39:00,38.2,20.2,30.60,North,355,3.0,10.0,48,0.00,,,0.00,566,HR-IXPWINDi_r2_v1.2.,2013-11-13 17:39:00,
2013-11-13 12:44:00,38.4,20.9,30.60,South,191,5.0,10.0,49,0.00,,,0.00,561,HR-IXPWINDi_r2_v1.2.,2013-11-13 17:44:00,
2013-11-13 12:50:00,38.9,20.9,30.60,SSW,205,2.0,9.0,48,0.00,,,0.00,557,HR-IXPWINDi_r2_v1.2.,2013-11-13 17:50:00,
2013-11-13 12:55:00,39.4,21.3,30.60,South,190,3.0,6.0,48,0.00,,,0.00,555,HR-IXPWINDi_r2_v1.2.,2013-11-13 17:55:00,
2013-11-13 13:00:00,38.9,20.4,30.59,WNW,292,5.0,9.0,47,0.00,,,0.00,552,HR-IXPWINDi_r2_v1.2.,2013-11-13 18:00:00,
2013-11-13 13:05:00,38.9,20.9,30.59,North,355,0.0,9.0,48,0.00,,,0.00,545,HR-IXPWINDi_r2_v1.2.,2013-11-13 18:05:00,
2013-11-13 13:10:00,40.2,21.1,30.59,WSW,240,5.0,8.0,46,0.00,,,0.00,543,HR-IXPWINDi_r2_v1.2.,2013-11-13 18:10:00,
2013-11-13 13:15:00,39.8,21.2,30.59,SSW,196,5.0,8.0,47,0.00,,,0.00,538,HR-IXPWINDi_r2_v1.2.,2013-11-13 18:15:00,
2013-11-13 13:20:00,39.2,20.7,30.58,South,187,4.0,9.0,47,0.00,,,0.00,531,HR-IXPWINDi_r2_v1.2.,2013-11-13 18:20:00,
2013-11-13 13:25:00,39.9,20.3,30.58,North,351,0.0,9.0,45,0.00,,,0.00,524,HR-IXPWINDi_r2_v1.2.,2013-11-13 18:25:00,
2013-11-13 13:30:00,39.8,20.2,30.57,SSW,192,6.0,7.0,45,0.00,,,0.00,522,HR-IXPWINDi_r2_v1.2.,2013-11-13 18:30:00,
2013-11-13 13:36:00,40.7,22.0,30.58,West,269,2.0,9.0,47,0.00,,,0.00,513,HR-IXPWINDi_r2_v1.2.,2013-11-13 18:36:00,
2013-11-13 13:41:00,39.9,20.3,30.57,NNW,339,1.0,9.0,45,0.00,,,0.00,508,HR-IXPWINDi_r2_v1.2.,2013-11-13 18:41:00,
2013-11-13 13:46:00,40.4,20.7,30.57,North,355,3.0,6.0,45,0.00,,,0.00,497,HR-IXPWINDi_r2_v1.2.,2013-11-13 18:46:00,
2013-11-13 13:51:00,40.3,20.1,30.57,WNW,301,0.0,9.0,44,0.00,,,0.00,490,HR-IXPWINDi_r2_v1.2.,2013-11-13 18:51:00,
2013-11-13 13:56:00,40.2,20.0,30.57,North,349,4.0,9.0,44,0.00,,,0.00,482,HR-IXPWINDi_r2_v1.2.,2013-11-13 18:56:00,
2013-11-13 14:02:00,41.1,20.8,30.57,NNW,338,0.0,8.0,44,0.00,,,0.00,473,HR-IXPWINDi_r2_v1.2.,2013-11-13 19:02:00,
2013-11-13 14:07:00,40.6,20.4,30.57,North,360,1.0,9.0,44,0.00,,,0.00,464,HR-IXPWINDi_r2_v1.2.,2013-11-13 19:07:00,
2013-11-13 14:12:00,40.7,20.5,30.56,North,355,3.0,9.0,44,0.00,,,0.00,454,HR-IXPWINDi_r2_v1.2.,2013-11-13 19:12:00,
2013-11-13 14:18:00,40.7,19.9,30.57,North,9,3.0,9.0,43,0.00,,,0.00,443,HR-IXPWINDi_r2_v1.2.,2013-11-13 19:18:00,
2013-11-13 14:23:00,41.0,20.8,30.56,WNW,299,0.0,6.0,44,0.00,,,0.00,432,HR-IXPWINDi_r2_v1.2.,2013-11-13 19:23:00,
2013-11-13 14:28:00,41.4,20.6,30.56,WNW,296,0.0,5.0,43,0.00,,,0.00,422,HR-IXPWINDi_r2_v1.2.,2013-11-13 19:28:00,
2013-11-13 14:33:00,41.6,20.8,30.56,West,270,2.0,9.0,43,0.00,,,0.00,411,HR-IXPWINDi_r2_v1.2.,2013-11-13 19:33:00,
2013-11-13 14:38:00,41.9,21.0,30.56,SE,142,0.0,9.0,43,0.00,,,0.00,401,HR-IXPWINDi_r2_v1.2.,2013-11-13 19:38:00,
2013-11-13 14:44:00,41.5,21.2,30.56,NNW,338,2.0,8.0,44,0.00,,,0.00,388,HR-IXPWINDi_r2_v1.2.,2013-11-13 19:44:00,
2013-11-13 14:49:00,41.5,20.1,30.56,SSW,213,1.0,8.0,42,0.00,,,0.00,376,HR-IXPWINDi_r2_v1.2.,2013-11-13 19:49:00,
2013-11-13 14:54:00,41.0,19.7,30.56,NW,323,5.0,9.0,42,0.00,,,0.00,362,HR-IXPWINDi_r2_v1.2.,2013-11-13 19:54:00,
2013-11-13 15:00:00,41.3,20.5,30.56,NNW,345,3.0,9.0,43,0.00,,,0.00,350,HR-IXPWINDi_r2_v1.2.,2013-11-13 20:00:00,
2013-11-13 15:05:00,41.7,21.4,30.56,WSW,248,0.0,10.0,44,0.00,,,0.00,336,HR-IXPWINDi_r2_v1.2.,2013-11-13 20:05:00,
2013-11-13 15:10:00,41.9,21.6,30.56,SW,219,1.0,10.0,44,0.00,,,0.00,325,HR-IXPWINDi_r2_v1.2.,2013-11-13 20:10:00,
2013-11-13 15:15:00,41.2,22.5,30.56,SSW,198,0.0,6.0,47,0.00,,,0.00,311,HR-IXPWINDi_r2_v1.2.,2013-11-13 20:15:00,
2013-11-13 15:20:00,40.4,20.7,30.56,SSW,192,5.0,11.0,45,0.00,,,0.00,301,HR-IXPWINDi_r2_v1.2.,2013-11-13 20:20:00,
2013-11-13 15:25:00,39.8,20.2,30.55,SW,217,5.0,11.0,45,0.00,,,0.00,287,HR-IXPWINDi_r2_v1.2.,2013-11-13 20:25:00,
2013-11-13 15:30:00,40.5,20.8,30.55,NW,315,1.0,11.0,45,0.00,,,0.00,274,HR-IXPWINDi_r2_v1.2.,2013-11-13 20:30:00,
2013-11-13 15:35:00,41.1,21.4,30.56,SW,236,1.0,10.0,45,0.00,,,0.00,258,HR-IXPWINDi_r2_v1.2.,2013-11-13 20:35:00,
2013-11-13 15:40:00,40.3,21.2,30.56,SSW,212,3.0,8.0,46,0.00,,,0.00,241,HR-IXPWINDi_r2_v1.2.,2013-11-13 20:40:00,
2013-11-13 15:46:00,39.8,21.2,30.56,WSW,258,2.0,8.0,47,0.00,,,0.00,223,HR-IXPWINDi_r2_v1.2.,2013-11-13 20:46:00,
2013-11-13 15:51:00,39.6,20.5,30.56,SW,214,0.0,8.0,46,0.00,,,0.00,206,HR-IXPWINDi_r2_v1.2.,2013-11-13 20:51:00,
2013-11-13 15:56:00,38.9,20.9,30.56,SSW,209,6.0,9.0,48,0.00,,,0.00,179,HR-IXPWINDi_r2_v1.2.,2013-11-13 20:56:00,
2013-11-13 16:01:00,39.3,21.2,30.57,SSW,203,1.0,9.0,48,0.00,,,0.00,121,HR-IXPWINDi_r2_v1.2.,2013-11-13 21:01:00,
2013-11-13 16:06:00,39.6,21.5,30.57,West,261,1.0,8.0,48,0.00,,,0.00,134,HR-IXPWINDi_r2_v1.2.,2013-11-13 21:06:00,
2013-11-13 16:11:00,38.8,21.3,30.57,SSW,204,0.0,6.0,49,0.00,,,0.00,116,HR-IXPWINDi_r2_v1.2.,2013-11-13 21:11:00,
2013-11-13 16:16:00,39.9,21.3,30.57,SSW,204,0.0,5.0,47,0.00,,,0.00,62,HR-IXPWINDi_r2_v1.2.,2013-11-13 21:16:00,
2013-11-13 16:21:00,38.8,20.8,30.57,SSW,196,0.0,6.0,48,0.00,,,0.00,74,HR-IXPWINDi_r2_v1.2.,2013-11-13 21:21:00,
2013-11-13 16:26:00,38.3,21.3,30.57,SSW,200,0.0,6.0,50,0.00,,,0.00,53,HR-IXPWINDi_r2_v1.2.,2013-11-13 21:26:00,
2013-11-13 16:31:00,37.8,20.8,30.57,SSW,200,0.0,5.0,50,0.00,,,0.00,42,HR-IXPWINDi_r2_v1.2.,2013-11-13 21:31:00,
2013-11-13 16:37:00,38.0,20.5,30.57,SSW,205,0.0,3.0,49,0.00,,,0.00,25,HR-IXPWINDi_r2_v1.2.,2013-11-13 21:37:00,
2013-11-13 16:42:00,37.4,20.5,30.57,SSW,197,0.0,8.0,50,0.00,,,0.00,18,HR-IXPWINDi_r2_v1.2.,2013-11-13 21:42:00,
2013-11-13 16:47:00,36.8,20.4,30.57,SSW,198,1.0,8.0,51,0.00,,,0.00,16,HR-IXPWINDi_r2_v1.2.,2013-11-13 21:47:00,
2013-11-13 16:52:00,36.5,20.1,30.57,SSW,196,3.0,6.0,51,0.00,,,0.00,14,HR-IXPWINDi_r2_v1.2.,2013-11-13 21:52:00,
2013-11-13 16:57:00,35.9,20.4,30.57,SSW,196,0.0,4.0,53,0.00,,,0.00,12,HR-IXPWINDi_r2_v1.2.,2013-11-13 21:57:00,
2013-11-13 17:02:00,35.7,20.7,30.57,SSW,196,0.0,3.0,54,0.00,,,0.00,11,HR-IXPWINDi_r2_v1.2.,2013-11-13 22:02:00,
2013-11-13 17:08:00,36.2,21.6,30.57,SSW,196,0.0,2.0,55,0.00,,,0.00,11,HR-IXPWINDi_r2_v1.2.,2013-11-13 22:08:00,
2013-11-13 17:13:00,35.5,20.5,30.57,SSW,196,4.0,4.0,54,0.00,,,0.00,7,HR-IXPWINDi_r2_v1.2.,2013-11-13 22:13:00,
2013-11-13 17:18:00,34.6,20.5,30.57,SSW,196,1.0,4.0,56,0.00,,,0.00,5,HR-IXPWINDi_r2_v1.2.,2013-11-13 22:18:00,
2013-11-13 17:23:00,34.0,20.4,30.57,SSW,196,3.0,5.0,57,0.00,,,0.00,0,HR-IXPWINDi_r2_v1.2.,2013-11-13 22:23:00,
2013-11-13 17:29:00,33.8,21.4,30.57,SSW,196,0.0,5.0,60,0.00,,,0.00,0,HR-IXPWINDi_r2_v1.2.,2013-11-13 22:29:00,
2013-11-13 17:34:00,34.1,21.7,30.57,SSW,196,0.0,3.0,60,0.00,,,0.00,0,HR-IXPWINDi_r2_v1.2.,2013-11-13 22:34:00,
2013-11-13 17:39:00,33.9,21.9,30.58,SSW,196,0.0,1.0,61,0.00,,,0.00,0,HR-IXPWINDi_r2_v1.2.,2013-11-13 22:39:00,
2013-11-13 17:44:00,33.2,22.0,30.58,SSW,196,0.0,1.0,63,0.00,,,0.00,0,HR-IXPWINDi_r2_v1.2.,2013-11-13 22:44:00,
2013-11-13 17:49:00,32.9,21.7,30.58,SSW,196,0.0,0.0,63,0.00,,,0.00,0,HR-IXPWINDi_r2_v1.2.,2013-11-13 22:49:00,
2013-11-13 17:54:00,32.4,21.6,30.58,SSW,196,0.0,2.0,64,0.00,,,0.00,0,HR-IXPWINDi_r2_v1.2.,2013-11-13 22:54:00,
2013-11-13 17:59:00,32.1,21.7,30.58,SSW,196,0.0,2.0,65,0.00,,,0.00,0,HR-IXPWINDi_r2_v1.2.,2013-11-13 22:59:00,
2013-11-13 18:04:00,32.0,21.9,30.58,SSW,196,0.0,1.0,66,0.00,,,0.00,0,HR-IXPWINDi_r2_v1.2.,2013-11-13 23:04:00,
2013-11-13 18:10:00,32.0,21.9,30.59,SSW,196,0.0,0.0,66,0.00,,,0.00,0,HR-IXPWINDi_r2_v1.2.,2013-11-13 23:10:00,
2013-11-13 18:15:00,31.9,21.8,30.59,SSW,196,0.0,0.0,66,0.00,,,0.00,0,HR-IXPWINDi_r2_v1.2.,2013-11-13 23:15:00,
2013-11-13 18:20:00,31.3,22.0,30.59,SSW,196,0.0,0.0,68,0.00,,,0.00,0,HR-IXPWINDi_r2_v1.2.,2013-11-13 23:20:00,
2013-11-13 18:25:00,31.1,22.1,30.59,SSW,196,0.0,0.0,69,0.00,,,0.00,0,HR-IXPWINDi_r2_v1.2.,2013-11-13 23:25:00,
2013-11-13 18:30:00,30.9,21.9,30.59,SSW,196,0.0,0.0,69,0.00,,,0.00,0,HR-IXPWINDi_r2_v1.2.,2013-11-13 23:30:00,
2013-11-13 18:35:00,30.3,21.4,30.59,SSW,196,0.0,0.0,69,0.00,,,0.00,0,HR-IXPWINDi_r2_v1.2.,2013-11-13 23:35:00,
2013-11-13 18:41:00,30.3,21.7,30.59,SSW,196,0.0,0.0,70,0.00,,,0.00,0,HR-IXPWINDi_r2_v1.2.,2013-11-13 23:41:00,
2013-11-13 18:46:00,30.0,21.1,30.59,SSW,196,0.0,0.0,69,0.00,,,0.00,0,HR-IXPWINDi_r2_v1.2.,2013-11-13 23:46:00,
2013-11-13 18:51:00,29.7,20.8,30.59,SSW,196,0.0,0.0,69,0.00,,,0.00,0,HR-IXPWINDi_r2_v1.2.,2013-11-13 23:51:00,
2013-11-13 18:56:00,29.4,20.8,30.59,ESE,116,1.0,2.0,70,0.00,,,0.00,0,HR-IXPWINDi_r2_v1.2.,2013-11-13 23:56:00,
2013-11-13 19:01:00,29.0,20.1,30.59,ESE,115,1.0,2.0,69,0.00,,,0.00,0,HR-IXPWINDi_r2_v1.2.,2013-11-14 00:01:00,
2013-11-13 19:06:00,28.5,20.6,30.59,ESE,115,0.0,4.0,72,0.00,,,0.00,0,HR-IXPWINDi_r2_v1.2.,2013-11-14 00:06:00,
2013-11-13 19:11:00,28.1,20.6,30.59,ESE,115,0.0,4.0,73,0.00,,,0.00,0,HR-IXPWINDi_r2_v1.2.,2013-11-14 00:11:00,
2013-11-13 19:17:00,28.0,20.8,30.59,ESE,115,0.0,0.0,74,0.00,,,0.00,0,HR-IXPWINDi_r2_v1.2.,2013-11-14 00:17:00,
2013-11-13 19:22:00,27.8,20.3,30.59,ESE,115,1.0,2.0,73,0.00,,,0.00,0,HR-IXPWINDi_r2_v1.2.,2013-11-14 00:22:00,
2013-11-13 19:27:00,27.5,20.0,30.59,East,98,2.0,2.0,73,0.00,,,0.00,0,HR-IXPWINDi_r2_v1.2.,2013-11-14 00:27:00,
2013-11-13 19:32:00,27.1,19.6,30.59,East,98,1.0,2.0,73,0.00,,,0.00,0,HR-IXPWINDi_r2_v1.2.,2013-11-14 00:32:00,
2013-11-13 19:37:00,27.0,19.8,30.59,East,98,0.0,2.0,74,0.00,,,0.00,0,HR-IXPWINDi_r2_v1.2.,2013-11-14 00:37:00,
2013-11-13 19:42:00,27.0,20.1,30.59,East,98,0.0,2.0,75,0.00,,,0.00,0,HR-IXPWINDi_r2_v1.2.,2013-11-14 00:42:00,
2013-11-13 19:48:00,27.2,20.3,30.59,East,98,2.0,2.0,75,0.00,,,0.00,0,HR-IXPWINDi_r2_v1.2.,2013-11-14 00:48:00,
2013-11-13 19:53:00,26.9,20.0,30.59,East,98,0.0,2.0,75,0.00,,,0.00,0,HR-IXPWINDi_r2_v1.2.,2013-11-14 00:53:00,
2013-11-13 19:58:00,27.0,20.5,30.58,East,98,0.0,2.0,76,0.00,,,0.00,0,HR-IXPWINDi_r2_v1.2.,2013-11-14 00:58:00,
2013-11-13 20:03:00,26.9,20.0,30.59,East,98,0.0,2.0,75,0.00,,,0.00,0,HR-IXPWINDi_r2_v1.2.,2013-11-14 01:03:00,
2013-11-13 20:08:00,26.7,19.9,30.59,East,98,0.0,1.0,75,0.00,,,0.00,0,HR-IXPWINDi_r2_v1.2.,2013-11-14 01:08:00,
2013-11-13 20:13:00,26.5,20.0,30.58,East,98,1.0,2.0,76,0.00,,,0.00,0,HR-IXPWINDi_r2_v1.2.,2013-11-14 01:13:00,
2013-11-13 20:18:00,26.3,19.8,30.58,East,98,0.0,2.0,76,0.00,,,0.00,0,HR-IXPWINDi_r2_v1.2.,2013-11-14 01:18:00,
2013-11-13 20:23:00,26.0,19.8,30.58,East,98,0.0,1.0,77,0.00,,,0.00,0,HR-IXPWINDi_r2_v1.2.,2013-11-14 01:23:00,
2013-11-13 20:29:00,25.8,19.6,30.58,East,98,1.0,2.0,77,0.00,,,0.00,0,HR-IXPWINDi_r2_v1.2.,2013-11-14 01:29:00,
2013-11-13 20:34:00,25.6,19.4,30.58,East,98,0.0,2.0,77,0.00,,,0.00,0,HR-IXPWINDi_r2_v1.2.,2013-11-14 01:34:00,
2013-11-13 20:39:00,25.5,19.6,30.58,East,98,0.0,2.0,78,0.00,,,0.00,0,HR-IXPWINDi_r2_v1.2.,2013-11-14 01:39:00,
2013-11-13 20:44:00,25.4,19.8,30.58,East,98,0.0,1.0,79,0.00,,,0.00,0,HR-IXPWINDi_r2_v1.2.,2013-11-14 01:44:00,
2013-11-13 20:49:00,25.5,20.2,30.58,East,98,0.0,1.0,80,0.00,,,0.00,0,HR-IXPWINDi_r2_v1.2.,2013-11-14 01:49:00,
2013-11-13 20:55:00,25.9,20.3,30.58,East,98,0.0,0.0,79,0.00,,,0.00,0,HR-IXPWINDi_r2_v1.2.,2013-11-14 01:55:00,
2013-11-13 21:00:00,26.0,20.4,30.59,East,98,0.0,0.0,79,0.00,,,0.00,0,HR-IXPWINDi_r2_v1.2.,2013-11-14 02:00:00,
2013-11-13 21:05:00,26.1,20.5,30.58,East,98,0.0,0.0,79,0.00,,,0.00,0,HR-IXPWINDi_r2_v1.2.,2013-11-14 02:05:00,
2013-11-13 21:10:00,25.9,20.0,30.58,East,98,0.0,0.0,78,0.00,,,0.00,0,HR-IXPWINDi_r2_v1.2.,2013-11-14 02:10:00,
2013-11-13 21:16:00,25.6,20.0,30.58,East,98,0.0,0.0,79,0.00,,,0.00,0,HR-IXPWINDi_r2_v1.2.,2013-11-14 02:16:00,
2013-11-13 21:21:00,25.4,19.8,30.58,East,98,0.0,2.0,79,0.00,,,0.00,0,HR-IXPWINDi_r2_v1.2.,2013-11-14 02:21:00,
2013-11-13 21:26:00,25.2,19.6,30.58,East,98,0.0,2.0,79,0.00,,,0.00,0,HR-IXPWINDi_r2_v1.2.,2013-11-14 02:26:00,
2013-11-13 21:31:00,24.9,19.3,30.58,East,98,0.0,1.0,79,0.00,,,0.00,0,HR-IXPWINDi_r2_v1.2.,2013-11-14 02:31:00,
2013-11-13 21:36:00,24.9,19.6,30.58,East,98,0.0,0.0,80,0.00,,,0.00,0,HR-IXPWINDi_r2_v1.2.,2013-11-14 02:36:00,
2013-11-13 21:42:00,24.7,19.4,30.58,East,98,0.0,0.0,80,0.00,,,0.00,0,HR-IXPWINDi_r2_v1.2.,2013-11-14 02:42:00,
2013-11-13 21:47:00,24.7,19.4,30.58,East,98,0.0,0.0,80,0.00,,,0.00,0,HR-IXPWINDi_r2_v1.2.,2013-11-14 02:47:00,
2013-11-13 21:52:00,24.8,19.5,30.59,East,98,0.0,0.0,80,0.00,,,0.00,0,HR-IXPWINDi_r2_v1.2.,2013-11-14 02:52:00,
2013-11-13 21:58:00,24.8,19.5,30.58,East,98,0.0,0.0,80,0.00,,,0.00,0,HR-IXPWINDi_r2_v1.2.,2013-11-14 02:58:00,
2013-11-13 22:03:00,24.6,19.3,30.58,East,98,0.0,1.0,80,0.00,,,0.00,0,HR-IXPWINDi_r2_v1.2.,2013-11-14 03:03:00,
2013-11-13 22:08:00,24.3,19.0,30.58,East,98,0.0,1.0,80,0.00,,,0.00,0,HR-IXPWINDi_r2_v1.2.,2013-11-14 03:08:00,
2013-11-13 22:13:00,24.0,18.7,30.58,East,98,0.0,4.0,80,0.00,,,0.00,0,HR-IXPWINDi_r2_v1.2.,2013-11-14 03:13:00,
2013-11-13 22:18:00,23.9,18.9,30.58,East,98,0.0,4.0,81,0.00,,,0.00,0,HR-IXPWINDi_r2_v1.2.,2013-11-14 03:18:00,
2013-11-13 22:23:00,23.7,18.7,30.57,East,98,0.0,0.0,81,0.00,,,0.00,0,HR-IXPWINDi_r2_v1.2.,2013-11-14 03:23:00,
2013-11-13 22:29:00,23.5,18.5,30.57,East,98,0.0,0.0,81,0.00,,,0.00,0,HR-IXPWINDi_r2_v1.2.,2013-11-14 03:29:00,
2013-11-13 22:34:00,23.3,18.6,30.57,East,98,0.0,2.0,82,0.00,,,0.00,0,HR-IXPWINDi_r2_v1.2.,2013-11-14 03:34:00,
2013-11-13 22:39:00,23.2,18.8,30.57,East,98,0.0,2.0,83,0.00,,,0.00,0,HR-IXPWINDi_r2_v1.2.,2013-11-14 03:39:00,
2013-11-13 22:44:00,23.1,18.7,30.57,East,98,0.0,1.0,83,0.00,,,0.00,0,HR-IXPWINDi_r2_v1.2.,2013-11-14 03:44:00,
2013-11-13 22:50:00,22.9,18.5,30.57,East,98,1.0,4.0,83,0.00,,,0.00,0,HR-IXPWINDi_r2_v1.2.,2013-11-14 03:50:00,
2013-11-13 22:55:00,22.8,18.4,30.57,East,98,0.0,4.0,83,0.00,,,0.00,0,HR-IXPWINDi_r2_v1.2.,2013-11-14 03:55:00,
2013-11-13 23:00:00,22.7,18.6,30.57,East,98,0.0,2.0,84,0.00,,,0.00,0,HR-IXPWINDi_r2_v1.2.,2013-11-14 04:00:00,
2013-11-13 23:05:00,22.6,18.5,30.57,East,98,0.0,2.0,84,0.00,,,0.00,0,HR-IXPWINDi_r2_v1.2.,2013-11-14 04:05:00,
2013-11-13 23:10:00,22.6,18.5,30.57,East,98,0.0,1.0,84,0.00,,,0.00,0,HR-IXPWINDi_r2_v1.2.,2013-11-14 04:10:00,
2013-11-13 23:15:00,22.7,18.9,30.56,East,98,0.0,2.0,85,0.00,,,0.00,0,HR-IXPWINDi_r2_v1.2.,2013-11-14 04:15:00,
2013-11-13 23:20:00,22.7,18.6,30.56,East,98,0.0,2.0,84,0.00,,,0.00,0,HR-IXPWINDi_r2_v1.2.,2013-11-14 04:20:00,
2013-11-13 23:25:00,22.8,19.0,30.56,East,98,0.0,1.0,85,0.00,,,0.00,0,HR-IXPWINDi_r2_v1.2.,2013-11-14 04:25:00,
2013-11-13 23:30:00,22.7,18.6,30.56,East,98,1.0,1.0,84,0.00,,,0.00,0,HR-IXPWINDi_r2_v1.2.,2013-11-14 04:30:00,
2013-11-13 23:35:00,22.6,18.8,30.56,East,98,0.0,2.0,85,0.00,,,0.00,0,HR-IXPWINDi_r2_v1.2.,2013-11-14 04:35:00,
2013-11-13 23:41:00,22.7,18.9,30.56,East,98,1.0,2.0,85,0.00,,,0.00,0,HR-IXPWINDi_r2_v1.2.,2013-11-14 04:41:00,
2013-11-13 23:46:00,22.4,18.6,30.56,East,98,0.0,4.0,85,0.00,,,0.00,0,HR-IXPWINDi_r2_v1.2.,2013-11-14 04:46:00,
2013-11-13 23:51:00,22.4,18.3,30.56,East,98,0.0,4.0,84,0.00,,,0.00,0,HR-IXPWINDi_r2_v1.2.,2013-11-14 04:51:00,
2013-11-13 23:56:00,22.2,18.4,30.56,East,98,2.0,2.0,85,0.00,,,0.00,0,HR-IXPWINDi_r2_v1.2.,2013-11-14 04:56:00,